Location: Sydney
(46.1500°N, 60.1670°W)
Time: 16:28:03
(UTC-03:00)

Iridium 90 - Visible Passes

Search period start: 16 September 2014 00:00
Search period end: 26 September 2014 00:00
Orbit: 745 x 752 km, 86.4° (Epoch: 16 September)

Date Brightness Start Highest point End Pass type
(mag) Time Alt. Az. Time Alt. Az. Time Alt. Az.
16 Sep 6.9 04:05:26 10° SSE 04:10:00 35° E 04:14:34 10° NNE visible
16 Sep 6.3 05:45:45 10° SW 05:50:08 29° WNW 05:54:33 10° NNW visible
17 Sep 8.0 03:25:04 10° ESE 03:28:18 17° ENE 03:31:31 10° NE visible
17 Sep 5.4 05:03:41 15° SSW 05:07:52 62° W 05:12:54 10° N visible
18 Sep 5.8 04:22:30 21° SSE 04:25:48 62° E 04:30:48 10° N visible
18 Sep 6.9 06:03:04 10° WSW 06:06:23 17° WNW 06:09:44 10° NNW visible
19 Sep 7.2 03:41:15 18° SE 03:43:57 29° E 03:48:17 10° NNE visible
19 Sep 6.1 05:21:09 20° SW 05:23:56 35° W 05:28:35 10° NNW visible
20 Sep 8.1 02:59:56 11° ESE 03:02:18 14° ENE 03:04:54 10° NE visible
20 Sep 5.3 04:39:50 39° SSW 04:41:43 75° W 04:46:48 10° N visible
21 Sep 6.1 03:58:28 41° SE 03:59:43 51° E 04:04:37 10° NNE visible
21 Sep 6.7 05:38:22 18° WSW 05:40:09 21° WNW 05:43:56 10° NNW visible
22 Sep 7.3 03:17:03 23° E 03:17:55 24° E 03:21:56 10° NNE visible
22 Sep 5.8 04:56:57 39° WSW 04:57:45 42° W 05:02:34 10° N visible
23 Sep 8.2 02:35:36 11° E 02:36:19 12° ENE 02:37:59 10° NE visible
23 Sep 5.3 04:15:29 87° S 04:15:35 90° E 04:20:41 10° N visible
23 Sep 7.2 05:55:23 11° W 05:56:28 12° WNW 05:58:27 10° NW visible
24 Sep 6.5 03:34:00 41° ENE 03:34:00 41° ENE 03:38:23 10° NNE visible
24 Sep 6.5 05:13:54 25° WNW 05:13:55 25° WNW 05:18:04 10° NNW visible
25 Sep 7.7 02:52:29 20° ENE 02:52:29 20° ENE 02:55:32 10° NNE visible
25 Sep 5.8 04:32:22 47° NW 04:32:22 47° NW 04:36:31 10° N visible
